When you browse on this site, cookies collect data to enhance your experience and personalize the content and advertising you see.
Visit our Privacy Policy to learn more. By continuing to use the site, you agree to this use of cookies and data.
  • In Portugal
  • List of Countries
  • For 7 days
  • Water Temperature
  • Satellite Maps
  • Weather Map
  • Weather Widgets
  • user-avatar
    Login

    Hourly Weather Port Said

    Today, 24 May, Friday

    Time Temperature Precipitation Wind Pressure Humidity
    00:00 +37°C° 0 mm 3 mps 755 mmHg 14%
    01:00 +36°C° 0 mm 3 mps 755 mmHg 14%
    02:00 +35°C° 0 mm 4 mps 755 mmHg 15%
    03:00 +35°C° 0 mm 4 mps 755 mmHg 15%
    04:00 +35°C° 0 mm 4 mps 755 mmHg 14%
    05:00 +35°C° 0 mm 3 mps 755 mmHg 14%
    06:00 +36°C° 0 mm 4 mps 755 mmHg 14%
    07:00 +37°C° 0 mm 5 mps 755 mmHg 13%
    08:00 +39°C° 0 mm 5 mps 755 mmHg 15%
    09:00 +39°C° 0 mm 5 mps 756 mmHg 17%
    10:00 +39°C° 0 mm 6 mps 756 mmHg 19%
    11:00 +40°C° 0 mm 6 mps 756 mmHg 20%
    12:00 +39°C° 0 mm 7 mps 756 mmHg 23%
    13:00 +39°C° 0 mm 7 mps 756 mmHg 25%
    14:00 +38°C° 0 mm 8 mps 756 mmHg 27%
    15:00 +35°C° 0 mm 8 mps 756 mmHg 32%
    16:00 +33°C° 0 mm 8 mps 756 mmHg 38%
    17:00 +32°C° 0 mm 8 mps 756 mmHg 44%
    18:00 +29°C° 0 mm 8 mps 757 mmHg 49%
    19:00 +28°C° 0 mm 7 mps 757 mmHg 53%
    20:00 +27°C° 0 mm 7 mps 758 mmHg 58%
    21:00 +26°C° 0 mm 6 mps 758 mmHg 59%
    22:00 +26°C° 0 mm 5 mps 759 mmHg 60%
    23:00 +26°C° 0 mm 5 mps 760 mmHg 60%

    Tomorrow, 25 May, Saturday

    Time Temperature Precipitation Wind Pressure Humidity
    00:00 +25°C° 0 mm 5 mps 760 mmHg 62%
    01:00 +25°C° 0 mm 4 mps 760 mmHg 64%
    02:00 +23°C° 0 mm 4 mps 760 mmHg 65%
    03:00 +23°C° 0 mm 4 mps 760 mmHg 67%
    04:00 +24°C° 0 mm 3 mps 760 mmHg 68%
    05:00 +24°C° 0 mm 3 mps 761 mmHg 69%
    06:00 +25°C° 0 mm 3 mps 761 mmHg 62%
    07:00 +26°C° 0 mm 3 mps 761 mmHg 56%
    08:00 +27°C° 0 mm 3 mps 761 mmHg 50%
    09:00 +28°C° 0 mm 4 mps 761 mmHg 45%
    10:00 +29°C° 0 mm 4 mps 761 mmHg 40%
    11:00 +30°C° 0 mm 4 mps 761 mmHg 35%
    12:00 +30°C° 0 mm 5 mps 761 mmHg 36%
    13:00 +32°C° 0 mm 6 mps 760 mmHg 37%
    14:00 +32°C° 0 mm 7 mps 760 mmHg 38%
    15:00 +30°C° 0 mm 6 mps 760 mmHg 41%
    16:00 +29°C° 0 mm 6 mps 760 mmHg 43%
    17:00 +28°C° 0 mm 6 mps 760 mmHg 45%
    18:00 +27°C° 0 mm 6 mps 760 mmHg 51%
    19:00 +26°C° 0 mm 6 mps 760 mmHg 58%
    20:00 +25°C° 0 mm 5 mps 761 mmHg 65%
    21:00 +23°C° 0 mm 5 mps 761 mmHg 66%
    22:00 +23°C° 0 mm 4 mps 761 mmHg 67%
    23:00 +24°C° 0 mm 3 mps 761 mmHg 69%

    Day after tomorrow, 26 May, Sunday

    Time Temperature Precipitation Wind Pressure Humidity
    00:00 +24°C° 0 mm 3 mps 761 mmHg 70%
    01:00 +22°C° 0 mm 3 mps 761 mmHg 70%
    02:00 +22°C° 0 mm 3 mps 760 mmHg 71%
    03:00 +22°C° 0 mm 3 mps 760 mmHg 71%
    04:00 +22°C° 0 mm 3 mps 760 mmHg 71%
    05:00 +21°C° 0 mm 3 mps 760 mmHg 71%
    06:00 +22°C° 0 mm 3 mps 761 mmHg 63%
    07:00 +24°C° 0 mm 3 mps 761 mmHg 56%
    08:00 +26°C° 0 mm 3 mps 761 mmHg 49%
    09:00 +27°C° 0 mm 4 mps 761 mmHg 44%
    10:00 +28°C° 0 mm 4 mps 761 mmHg 39%
    11:00 +29°C° 0 mm 5 mps 760 mmHg 35%
    12:00 +29°C° 0 mm 5 mps 760 mmHg 34%
    13:00 +30°C° 0 mm 5 mps 760 mmHg 34%
    14:00 +30°C° 0 mm 5 mps 759 mmHg 34%
    15:00 +29°C° 0 mm 6 mps 759 mmHg 35%
    16:00 +29°C° 0 mm 6 mps 759 mmHg 37%
    17:00 +28°C° 0 mm 6 mps 759 mmHg 39%
    18:00 +27°C° 0 mm 6 mps 759 mmHg 47%
    19:00 +26°C° 0 mm 6 mps 760 mmHg 55%
    20:00 +25°C° 0 mm 5 mps 760 mmHg 62%
    21:00 +23°C° 0 mm 5 mps 760 mmHg 63%
    22:00 +23°C° 0 mm 5 mps 760 mmHg 65%
    23:00 +23°C° 0 mm 4 mps 760 mmHg 66%

    27 May, Monday

    Time Temperature Precipitation Wind Pressure Humidity
    00:00 +23°C° 0 mm 4 mps 759 mmHg 68%
    01:00 +22°C° 0 mm 3 mps 759 mmHg 69%
    02:00 +22°C° 0 mm 3 mps 759 mmHg 71%
    03:00 +22°C° 0 mm 3 mps 759 mmHg 72%
    04:00 +22°C° 0 mm 3 mps 759 mmHg 73%
    05:00 +22°C° 0 mm 3 mps 759 mmHg 74%
    06:00 +24°C° 0 mm 3 mps 759 mmHg 67%
    07:00 +25°C° 0 mm 3 mps 759 mmHg 59%
    08:00 +26°C° 0 mm 4 mps 759 mmHg 51%
    09:00 +27°C° 0 mm 4 mps 759 mmHg 47%
    10:00 +29°C° 0 mm 4 mps 759 mmHg 42%
    11:00 +30°C° 0 mm 5 mps 759 mmHg 37%
    12:00 +30°C° 0 mm 5 mps 759 mmHg 35%
    13:00 +32°C° 0 mm 6 mps 758 mmHg 33%
    14:00 +32°C° 0 mm 6 mps 758 mmHg 32%
    15:00 +30°C° 0 mm 6 mps 758 mmHg 35%
    16:00 +29°C° 0 mm 5 mps 758 mmHg 39%
    17:00 +29°C° 0 mm 5 mps 758 mmHg 42%
    18:00 +28°C° 0 mm 5 mps 758 mmHg 50%
    19:00 +26°C° 0 mm 4 mps 759 mmHg 57%
    20:00 +25°C° 0 mm 4 mps 759 mmHg 64%
    21:00 +25°C° 0 mm 3 mps 759 mmHg 67%
    22:00 +25°C° 0 mm 3 mps 759 mmHg 69%
    23:00 +24°C° 0 mm 3 mps 759 mmHg 72%

    28 May, Tuesday

    Time Temperature Precipitation Wind Pressure Humidity
    00:00 +24°C° 0 mm 3 mps 759 mmHg 74%
    01:00 +24°C° 0 mm 3 mps 759 mmHg 76%
    02:00 +24°C° 0 mm 3 mps 758 mmHg 78%
    03:00 +22°C° 0 mm 3 mps 758 mmHg 79%
    04:00 +22°C° 0 mm 3 mps 758 mmHg 81%
    05:00 +22°C° 0 mm 3 mps 758 mmHg 82%
    06:00 +24°C° 0 mm 3 mps 758 mmHg 72%
    07:00 +26°C° 0 mm 3 mps 759 mmHg 62%
    08:00 +27°C° 0 mm 3 mps 759 mmHg 52%
    09:00 +29°C° 0 mm 3 mps 759 mmHg 45%
    10:00 +30°C° 0 mm 3 mps 759 mmHg 39%
    11:00 +33°C° 0 mm 4 mps 759 mmHg 32%
    12:00 +33°C° 0 mm 4 mps 758 mmHg 32%
    13:00 +34°C° 0 mm 5 mps 758 mmHg 32%
    14:00 +34°C° 0 mm 6 mps 757 mmHg 32%
    15:00 +33°C° 0 mm 6 mps 757 mmHg 35%
    16:00 +33°C° 0 mm 6 mps 757 mmHg 38%
    17:00 +32°C° 0 mm 7 mps 758 mmHg 42%
    18:00 +30°C° 0 mm 6 mps 758 mmHg 47%
    19:00 +28°C° 0 mm 6 mps 758 mmHg 53%
    20:00 +27°C° 0 mm 5 mps 759 mmHg 59%
    21:00 +27°C° 0 mm 4 mps 759 mmHg 60%
    22:00 +27°C° 0 mm 4 mps 759 mmHg 61%
    23:00 +26°C° 0 mm 3 mps 759 mmHg 62%

    29 May, Wednesday

    Time Temperature Precipitation Wind Pressure Humidity
    00:00 +26°C° 0 mm 3 mps 759 mmHg 63%
    01:00 +26°C° 0 mm 3 mps 758 mmHg 64%
    02:00 +26°C° 0 mm 3 mps 758 mmHg 65%
    03:00 +25°C° 0 mm 2 mps 758 mmHg 66%
    04:00 +25°C° 0 mm 2 mps 758 mmHg 67%
    05:00 +25°C° 0 mm 2 mps 758 mmHg 68%
    06:00 +26°C° 0 mm 3 mps 758 mmHg 62%
    07:00 +28°C° 0 mm 3 mps 758 mmHg 55%
    08:00 +29°C° 0 mm 4 mps 758 mmHg 48%
    09:00 +32°C° 0 mm 4 mps 758 mmHg 42%
    10:00 +34°C° 0 mm 5 mps 758 mmHg 37%
    11:00 +35°C° 0 mm 6 mps 758 mmHg 31%
    12:00 +36°C° 0 mm 6 mps 758 mmHg 31%
    13:00 +36°C° 0 mm 7 mps 758 mmHg 30%
    14:00 +37°C° 0 mm 8 mps 757 mmHg 30%
    15:00 +35°C° 0 mm 7 mps 757 mmHg 31%
    16:00 +34°C° 0 mm 7 mps 757 mmHg 32%
    17:00 +33°C° 0 mm 6 mps 757 mmHg 33%
    18:00 +32°C° 0 mm 5 mps 758 mmHg 39%
    19:00 +30°C° 0 mm 4 mps 758 mmHg 45%
    20:00 +28°C° 0 mm 3 mps 758 mmHg 51%
    21:00 +28°C° 0 mm 3 mps 758 mmHg 53%
    22:00 +28°C° 0 mm 3 mps 758 mmHg 55%
    23:00 +27°C° 0 mm 3 mps 758 mmHg 57%
    Show more